Simultaneous Nadir Overpasses (SNOs) Predictions

Prediction of SNOs between GOES-16 and NOAA-21 Satellite Orbit:

Table of predicted SNOs for the next 14.0 days since TLE Epoch: 10/27/2023
Index Date Time (GOES-16) GOES-16 Lat,Lon NOAA-21 Lat,Lon Distance(km) Time Diff (sec)
1 10/28/2023 18:37:25 -0.03, -75.21 -0.84, -78.73 401.70 80
2 10/29/2023 18:21:22 -0.03, -75.22 0.20, -74.21 114.54 80
3 10/31/2023 06:43:12 0.03, -75.22 0.97, -79.49 487.07 80
4 11/01/2023 06:21:49 0.03, -75.22 -0.02, -74.96 29.21 80
5 11/03/2023 18:25:05 -0.02, -75.25 -0.15, -75.76 58.07 80
6 11/04/2023 18:09:02 -0.02, -75.26 0.90, -71.24 458.93 80
7 11/06/2023 06:30:52 0.01, -75.28 0.32, -76.51 141.15 80
8 11/07/2023 06:09:29 0.02, -75.29 -0.74, -71.99 376.25 80
9 11/08/2023 18:31:27 -0.01, -75.32 -0.46, -77.30 225.96 80
10 11/09/2023 18:15:24 -0.01, -75.34 0.54, -72.78 292.06 80
